CZ-6A DEB

Satellite information

Favourite Embed

Satellite Type and Status

DEBRISIN ORBIT

Key statistics

Satellite CZ-6A DEB at a glance.

Uptime

969

Days in orbit

Revolutions

≈ 14.9

Per day

Orbit

SSO

Sun Synchronous Orbit

Inclination

99.1

Latest

Satellite identification and parameters

Extended collection of information and parameters for CZ-6A DEB.

Object identification

Identified? True

Debris? True

Object name: CZ-6A DEB

International designator: 2022-151SL

Object number (NORAD): 54947

Object ID (CCSDS): 54947

Country: PEOPLES REPUBLIC OF CHINA (PRC)

Current information (Y/N): Y

RCS size: SMALL

Orbital parameters

Period: 96.95 minutes

Inclination: 99.1083 deg

SMA: 6990.783 km

Apoapsis: 667.626 km

Periapsis: 557.67 km

RAAN: 306.1382 deg

Eccentricy: 0.0078643

Argument of periapsis: 243.7171 deg

Mean anomaly: 115.5945 deg

Mean motion: 14.85299471 rev/day

Mean motion (dot): 0.000187 rev/day2

B* drag term: 0.0020621 1/REarth

Two-line elements (TLE)

Creation date: July 6, 2025, 10:56 p.m.

Reference frame: TEME

Reference center: EARTH

Epoch: July 6, 2025, 7:01 p.m. UTC

TLE line 0: 0 CZ-6A DEB

TLE line 1: 1 54947U 22151SL 25187.79250581 .00018700 00000-0 20621-2 0 9999

TLE line 2: 2 54947 99.1083 306.1382 0078643 243.7171 115.5945 14.85299471140495

Live tracking on map

Real-time ground track for satellite CZ-6A DEB.

In-orbit conjunctions

A list of the most updated potential collisions computed for object CZ-6A DEB.

Target Orbit TCA Probability of collision Miss distance Type
ORBVIEW 1 (MICROLAB) LEO 2025-06-22 19:10:49 0.0002214267 357.0 (m) PAYLOAD
METEOR 2-8 DEB LEO 2024-11-09 19:58:03 0.0001610451 437.0 (m) DEBRIS

Associated space launch

Chinese satellite reported for atmospheric/ocean/environmental/spatial parameter research purposes, details TBD.

CZ-6A DEB was lifted into orbit during the mission ‘Long March 6A | Yunhai 3’, on board a Long March 6A space rocket.

The launch took place on Nov. 11, 2022, 10:52 p.m. from Launch Complex 9A.

For more information about the launch, click the button.

Launch to space Long March 6A | Yunhai 3
Long March 6A | Yunhai 3

Agency: N/A

Status: Launch Successful

Launch date: Nov. 11, 2022, 10:52 p.m. UTC

Rocket: Long March 6A

Launch pad: Launch Complex 9A

Location: Taiyuan Satellite Launch Center, People's Republic of China

...

Latest news about this satellite

There are no fresh news available about this satellite. Check back as we update our databases every day.


Newsletter sign-up

Weekly statistics, charts and insights to help you stay on top of the space industry.